Skagway, AK

3:03 AM AKDT on September 21, 2017 (GMT -0800)
Skagway

Weather History for PAGY - August, 2014

Change the Weather History Date:

Saturday, August 9, 2014

  Actual Average Record
Temperature  
Mean Temperature 55 °F -  
Max Temperature 57 °F 64 °F 79 °F (2003)
Min Temperature 53 °F 49 °F 40 °F (1970)
Degree Days  
Heating Degree Days 10    
Growing Degree Days 5 (Base 50)    
Moisture  
Dew Point 52 °F    
Average Humidity 92    
Maximum Humidity 97    
Minimum Humidity 83    
Precipitation  
Precipitation 0.13 in - - ()
Sea Level Pressure  
Sea Level Pressure 29.93 in    
Wind  
Wind Speed 1 mph (SW)    
Max Wind Speed 8 mph    
Max Gust Speed -    
Visibility 8 miles    
Events Rain    
Averages and records for this station are not official NWS values.
T = Trace of Precipitation, MM = Missing Value Source: NWS Daily Summary

Daily Weather History Graph

Daily Weather History Graph

Search for Another Location

Airport or City:

Trip Planner

Search our weather history database for the weather conditions in past years. The results will help you decide how hot, cold, wet, or windy it might be!

Date:

Astronomy

Aug. 09, 2014 Rise Set
Actual Time 5:04 AM AKDT 9:07 PM AKDT
Civil Twilight 4:11 AM AKDT 9:59 PM AKDT
Nautical Twilight 2:47 AM AKDT 11:21 PM AKDT
Astronomical Twilight Sun does not set Sun does not set
Moon 8:04 PM AKDT (8/9) 3:54 AM AKDT (8/9)
Length of Visible Light 17h 48m
Length of Day
16h 02m
Waxing Gibbous, 99% of the Moon is Illuminated
Aug 9
Waxing Gibbous
Aug 10
Full
Aug 17
Last Quarter
Aug 25
New
Sep 2
First Quarter

Hourly Weather History & Observations

Time (AKDT) Temp. Dew Point Humidity Pressure Visibility Wind Dir Wind Speed Gust Speed Precip Events Conditions
12:53 AM 55.0 °F 52.0 °F 89% 29.97 in 10.0 mi Calm Calm - 0.01 in Rain Light Rain
1:53 AM 55.0 °F 52.0 °F 89% 29.99 in 10.0 mi Variable 3.5 mph - 0.01 in   Overcast
2:34 AM 55.0 °F 52.0 °F 89% 29.97 in 10.0 mi Calm Calm - N/A   Overcast
2:53 AM 54.0 °F 52.0 °F 93% 29.99 in 10.0 mi Calm Calm - N/A   Overcast
3:29 AM 54.0 °F 52.0 °F 93% 29.97 in 8.0 mi NE 4.6 mph - 0.01 in Rain Light Rain
3:53 AM 54.0 °F 52.0 °F 93% 29.97 in 10.0 mi Calm Calm - 0.01 in Rain Light Rain
4:08 AM 53.1 °F 52.0 °F 96% 29.97 in 10.0 mi Calm Calm - 0.01 in Rain Light Rain
4:53 AM 54.0 °F 52.0 °F 93% 29.96 in 9.0 mi Calm Calm - 0.01 in   Overcast
5:53 AM 54.0 °F 52.0 °F 93% 29.96 in 5.0 mi Calm Calm - N/A   Overcast
5:56 AM 53.1 °F 52.0 °F 96% 29.97 in 1.8 mi Calm Calm - N/A   Overcast
6:02 AM 53.1 °F 52.0 °F 96% 29.97 in 0.8 mi Calm Calm - N/A   Overcast
6:06 AM 54.0 °F 52.0 °F 93% 29.97 in 1.5 mi Calm Calm - N/A   Overcast
6:10 AM 54.0 °F 52.0 °F 93% 29.95 in 3.0 mi Calm Calm - N/A   Overcast
6:33 AM 54.0 °F 52.0 °F 93% 29.95 in 10.0 mi Calm Calm - 0.00 in   Overcast
6:53 AM 54.0 °F 52.0 °F 93% 29.96 in 10.0 mi Calm Calm - 0.00 in   Overcast
7:16 AM 53.1 °F 51.1 °F 93% 29.95 in 4.0 mi Calm Calm - N/A   Overcast
7:53 AM 55.0 °F 53.1 °F 93% 29.95 in 10.0 mi Calm Calm - N/A   Overcast
8:07 AM 55.0 °F 53.1 °F 93% 29.95 in 10.0 mi Calm Calm - N/A   Overcast
8:53 AM 55.0 °F 53.1 °F 93% 29.95 in 10.0 mi Calm Calm - N/A   Overcast
9:53 AM 55.9 °F 52.0 °F 87% 29.94 in 10.0 mi Calm Calm - N/A   Overcast
10:53 AM 57.9 °F 54.0 °F 87% 29.93 in 10.0 mi Calm Calm - N/A   Overcast
11:53 AM 55.0 °F 50.0 °F 83% 29.92 in 10.0 mi SSW 4.6 mph - N/A   Overcast
12:53 PM 53.1 °F 50.0 °F 89% 29.92 in 10.0 mi SW 5.8 mph - N/A   Overcast
1:53 PM 54.0 °F 51.1 °F 90% 29.91 in 10.0 mi SW 3.5 mph - 0.00 in Rain Light Rain
2:53 PM 57.0 °F 52.0 °F 83% 29.90 in 10.0 mi Calm Calm - 0.00 in Rain Light Rain
3:53 PM 53.1 °F 50.0 °F 89% 29.89 in 10.0 mi SW 8.1 mph - 0.01 in Rain Light Rain
4:53 PM 57.0 °F 55.0 °F 93% 29.89 in 10.0 mi Calm Calm - 0.02 in Rain Light Rain
5:53 PM 54.0 °F 51.1 °F 90% 29.89 in 10.0 mi SW 8.1 mph - 0.02 in Rain Light Rain
6:53 PM 54.0 °F 51.1 °F 90% 29.86 in 10.0 mi SW 6.9 mph - 0.00 in   Overcast
8:53 PM 54.0 °F 52.0 °F 93% 29.89 in 10.0 mi West 5.8 mph - 0.01 in Rain Light Rain
9:53 PM 54.0 °F 52.0 °F 93% 29.88 in 10.0 mi Calm Calm - 0.01 in   Overcast
10:53 PM 54.0 °F 53.1 °F 97% 29.88 in 7.0 mi Calm Calm - 0.00 in Rain Light Rain
11:11 PM 54.0 °F 53.1 °F 97% 29.89 in 5.0 mi Calm Calm - 0.01 in Rain Light Rain
11:34 PM 54.0 °F 53.1 °F 97% 29.87 in 2.5 mi Calm Calm - 0.01 in Rain Light Rain
11:43 PM 53.1 °F 52.0 °F 96% 29.87 in 1.2 mi Calm Calm - 0.02 in Rain Light Rain
11:53 PM 53.1 °F 52.0 °F 96% 29.89 in 2.0 mi Calm Calm - 0.02 in Rain Light Rain